Weather History for PAGS - April, 2013

Change the Weather History Date:

Sunday, April 7, 2013

  Actual Average Record
Temperature  
Mean Temperature 40 °F -  
Max Temperature 51 °F - - ()
Min Temperature 28 °F - - ()
Degree Days  
Heating Degree Days 26    
Moisture  
Dew Point 33 °F    
Average Humidity 71    
Maximum Humidity 93    
Minimum Humidity 47    
Precipitation  
Precipitation 0.00 in - - ()
Sea Level Pressure  
Sea Level Pressure 29.87 in    
Wind  
Wind Speed 6 mph (South)    
Max Wind Speed 14 mph    
Max Gust Speed -    
Visibility 10 miles    
Events      
T = Trace of Precipitation, MM = Missing Value Source: NWS Daily Summary

Daily Weather History Graph

Daily Weather History Graph

Search for Another Location

Airport or City:

Trip Planner

Search our weather history database for the weather conditions in past years. The results will help you decide how hot, cold, wet, or windy it might be!

Date:

Astronomy

Apr. 07, 2013 Rise Set
Actual Time 6:11 AM AKDT 7:59 PM AKDT
Civil Twilight 5:30 AM AKDT 8:41 PM AKDT
Nautical Twilight 4:37 AM AKDT 9:34 PM AKDT
Astronomical Twilight 3:34 AM AKDT 10:38 PM AKDT
Moon 5:05 AM AKDT (4/7) 5:14 PM AKDT (4/7)
Length of Visible Light 15h 10m
Length of Day
13h 47m
Waning Crescent, 7% of the Moon is Illuminated
Apr 7
Waning Crescent
Apr 10
New
Apr 18
First Quarter
Apr 25
Full
May 2
Last Quarter

Hourly Weather History & Observations

Time (AKDT) Temp. Windchill Dew Point Humidity Pressure Visibility Wind Dir Wind Speed Gust Speed Precip Events Conditions
12:16 AM 33.8 °F 27.7 °F 32.0 °F 93% 29.71 in 10.0 mi NNW 6.9 mph - N/A   Overcast
12:36 AM 33.8 °F 30.8 °F 32.0 °F 93% 29.72 in 10.0 mi North 3.5 mph - N/A   Mostly Cloudy
12:56 AM 35.6 °F 29.9 °F 32.0 °F 87% 29.72 in 10.0 mi South 6.9 mph - N/A   Partly Cloudy
1:16 AM 44.6 °F 38.4 °F 32.0 °F 61% 29.73 in 10.0 mi SSE 12.7 mph - N/A   Mostly Cloudy
1:36 AM 44.6 °F 38.8 °F 32.0 °F 61% 29.73 in 10.0 mi SE 11.5 mph - N/A   Scattered Clouds
1:56 AM 42.8 °F 35.8 °F 33.8 °F 70% 29.73 in 10.0 mi SE 13.8 mph - N/A   Partly Cloudy
2:16 AM 42.8 °F 37.0 °F 32.0 °F 66% 29.74 in 10.0 mi SE 10.4 mph - N/A   Clear
2:36 AM 42.8 °F 36.6 °F 32.0 °F 66% 29.74 in 10.0 mi SE 11.5 mph - N/A   Clear
2:56 AM 44.6 °F 38.4 °F 32.0 °F 61% 29.75 in 10.0 mi SSE 12.7 mph - N/A   Clear
3:16 AM 42.8 °F 38.6 °F 32.0 °F 66% 29.76 in 10.0 mi SSE 6.9 mph - N/A   Clear
3:36 AM 42.8 °F 39.3 °F 32.0 °F 66% 29.76 in 10.0 mi SE 5.8 mph - N/A   Clear
3:56 AM 42.8 °F - 32.0 °F 66% 29.77 in 10.0 mi Calm Calm - N/A   Clear
4:16 AM 35.6 °F - 30.2 °F 81% 29.78 in 10.0 mi Calm Calm - N/A   Clear
4:36 AM 33.8 °F - 30.2 °F 87% 29.79 in 10.0 mi Calm Calm - N/A   Clear
4:56 AM 33.8 °F - 30.2 °F 87% 29.79 in 10.0 mi Calm Calm - N/A   Clear
5:16 AM 35.6 °F - 30.2 °F 81% 29.79 in 10.0 mi Calm Calm - N/A   Clear
5:36 AM 32.0 °F 26.4 °F 28.4 °F 87% 29.80 in 10.0 mi NNW 5.8 mph - N/A   Clear
5:56 AM 30.2 °F 24.3 °F 28.4 °F 93% 29.81 in 10.0 mi North 5.8 mph - N/A   Clear
6:16 AM 28.4 °F 23.3 °F 26.6 °F 93% 29.81 in 10.0 mi North 4.6 mph - N/A   Scattered Clouds
6:36 AM 30.2 °F 26.7 °F 28.4 °F 93% 29.83 in 10.0 mi WSW 3.5 mph - N/A   Scattered Clouds
6:56 AM 30.2 °F - 28.4 °F 93% 29.83 in 10.0 mi Calm Calm - N/A   Scattered Clouds
7:16 AM 30.2 °F 24.3 °F 28.4 °F 93% 29.84 in 10.0 mi North 5.8 mph - N/A   Partly Cloudy
7:36 AM 33.8 °F 30.8 °F 30.2 °F 87% 29.85 in 10.0 mi North 3.5 mph - N/A   Mostly Cloudy
7:56 AM 33.8 °F - 30.2 °F 87% 29.85 in 10.0 mi Calm Calm - N/A   Mostly Cloudy
8:16 AM 33.8 °F - 32.0 °F 93% 29.86 in 10.0 mi Calm Calm - N/A   Mostly Cloudy
8:36 AM 37.4 °F 34.9 °F 35.6 °F 93% 29.86 in 10.0 mi East 3.5 mph - N/A   Overcast
8:56 AM 37.4 °F 32.8 °F 35.6 °F 93% 29.87 in 10.0 mi NNW 5.8 mph - N/A   Mostly Cloudy
9:16 AM 42.8 °F 40.1 °F 35.6 °F 76% 29.87 in 10.0 mi NNW 4.6 mph - N/A   Overcast
9:36 AM 44.6 °F - 35.6 °F 71% 29.88 in 10.0 mi Calm Calm - N/A   Mostly Cloudy
9:56 AM 46.4 °F - 35.6 °F 66% 29.88 in 10.0 mi Calm Calm - N/A   Scattered Clouds
10:16 AM 46.4 °F 42.9 °F 35.6 °F 66% 29.89 in 10.0 mi SSE 6.9 mph - N/A   Overcast
10:36 AM 46.4 °F 45.2 °F 35.6 °F 66% 29.89 in 10.0 mi SE 3.5 mph - N/A   Overcast
10:56 AM 46.4 °F 43.5 °F 35.6 °F 66% 29.90 in 10.0 mi ESE 5.8 mph - N/A   Overcast
11:16 AM 48.2 °F - 35.6 °F 62% 29.91 in 10.0 mi SE 8.1 mph - N/A   Overcast
11:36 AM 48.2 °F - 33.8 °F 58% 29.91 in 10.0 mi SE 9.2 mph - N/A   Mostly Cloudy
11:56 AM 48.2 °F - 35.6 °F 62% 29.92 in 10.0 mi SE 8.1 mph - N/A   Overcast
12:16 PM 50.0 °F - 33.8 °F 54% 29.92 in 10.0 mi SE 10.4 mph - N/A   Mostly Cloudy
12:36 PM 50.0 °F - 33.8 °F 54% 29.92 in 10.0 mi East 10.4 mph - N/A   Overcast
12:56 PM 50.0 °F - 33.8 °F 54% 29.92 in 10.0 mi SE 11.5 mph - N/A   Mostly Cloudy
1:16 PM 50.0 °F - 32.0 °F 50% 29.92 in 10.0 mi SSE 8.1 mph - N/A   Scattered Clouds
1:36 PM 51.8 °F - 33.8 °F 50% 29.92 in 10.0 mi SSE 8.1 mph - N/A   Scattered Clouds
1:56 PM 51.8 °F - 32.0 °F 47% 29.92 in 10.0 mi SE 9.2 mph - N/A   Scattered Clouds
2:16 PM 50.0 °F - 33.8 °F 54% 29.93 in 10.0 mi SE 6.9 mph - N/A   Mostly Cloudy
2:36 PM 51.8 °F - 35.6 °F 54% 29.93 in 10.0 mi South 4.6 mph - N/A   Mostly Cloudy
2:56 PM 50.0 °F - 33.8 °F 54% 29.93 in 10.0 mi Calm Calm - N/A   Mostly Cloudy
3:16 PM 50.0 °F - 35.6 °F 58% 29.93 in 10.0 mi South 4.6 mph - N/A   Overcast
3:36 PM 50.0 °F - 33.8 °F 54% 29.93 in 10.0 mi SW 8.1 mph - N/A   Overcast
3:56 PM 51.8 °F - 33.8 °F 50% 29.93 in 10.0 mi WSW 6.9 mph - N/A   Overcast
4:16 PM 50.0 °F - 33.8 °F 54% 29.92 in 10.0 mi SW 9.2 mph - N/A   Mostly Cloudy
4:36 PM 50.0 °F - 35.6 °F 58% 29.93 in 10.0 mi WSW 10.4 mph - N/A   Overcast
4:56 PM 50.0 °F - 35.6 °F 58% 29.93 in 10.0 mi SW 9.2 mph - N/A   Mostly Cloudy
5:16 PM 48.2 °F - 33.8 °F 58% 29.92 in 10.0 mi SW 9.2 mph - N/A   Mostly Cloudy
5:36 PM 48.2 °F - 33.8 °F 58% 29.92 in 10.0 mi SW 8.1 mph - N/A   Partly Cloudy
5:56 PM 48.2 °F - 33.8 °F 58% 29.92 in 10.0 mi WSW 9.2 mph - N/A   Clear
6:16 PM 48.2 °F - 33.8 °F 58% 29.92 in 10.0 mi SW 9.2 mph - N/A   Clear
6:36 PM 48.2 °F - 33.8 °F 58% 29.92 in 10.0 mi SSW 3.5 mph - N/A   Clear
6:56 PM 46.4 °F 44.3 °F 35.6 °F 66% 29.92 in 10.0 mi SSW 4.6 mph - N/A   Clear
7:16 PM 46.4 °F 44.3 °F 35.6 °F 66% 29.93 in 10.0 mi SSW 4.6 mph - N/A   Clear
7:36 PM 44.6 °F 41.4 °F 33.8 °F 66% 29.93 in 10.0 mi WSW 5.8 mph - N/A   Mostly Cloudy
7:56 PM 44.6 °F 43.1 °F 33.8 °F 66% 29.94 in 10.0 mi WSW 3.5 mph - N/A   Overcast
8:16 PM 44.6 °F - 33.8 °F 66% 29.94 in 10.0 mi Calm Calm - N/A   Mostly Cloudy
8:36 PM 42.8 °F 41.1 °F 33.8 °F 70% 29.94 in 10.0 mi SE 3.5 mph - N/A   Mostly Cloudy
8:56 PM 41.0 °F - 33.8 °F 76% 29.94 in 10.0 mi Calm Calm - N/A   Partly Cloudy
9:16 PM 39.2 °F - 33.8 °F 81% 29.94 in 10.0 mi Calm Calm - N/A   Clear
9:36 PM 37.4 °F - 33.8 °F 87% 29.94 in 10.0 mi Calm Calm - N/A   Clear
10:16 PM 35.6 °F - 33.8 °F 93% 29.94 in 10.0 mi Calm Calm - N/A   Partly Cloudy
10:36 PM 35.6 °F - 33.8 °F 93% 29.93 in 10.0 mi Calm Calm - N/A   Mostly Cloudy
10:56 PM 33.8 °F - 30.2 °F 87% 29.94 in 10.0 mi Calm Calm - N/A   Mostly Cloudy
11:16 PM 33.8 °F - 30.2 °F 87% 29.93 in 10.0 mi Calm Calm - N/A   Mostly Cloudy
11:36 PM 33.8 °F - 30.2 °F 87% 29.94 in 10.0 mi Calm Calm - N/A   Scattered Clouds
11:56 PM 33.8 °F 30.8 °F 30.2 °F 87% 29.94 in 10.0 mi NNW 3.5 mph - N/A   Clear